Wynyard / W.B. Needham Field

Jump to: basic info | weather | frequencies | runways | comments

Related pages: nearby airports | nearby navaids | notams | map

Basic information (top)

Codes: CYYO
Location: lon 51.809888, lat -104.169788, elev 1,740 ft / 530 m msl
Status: small_airport
Scheduled airline service: no
Links: Wikipedia Mobile

Weather (top)

Current conditions for Yorkton Municipal Airport 72nm (133km) ESE (rec'd 2014/09/30 15:07Z):

CYQV 301507Z AUTO 15012G17KT 4SM -RA BR SCT007 OVC021 10/08 A2972 RMK SLP079

Airport forecast for Yorkton Municipal Airport 72nm (133km) ESE (rec'd 2014/09/30 12:45Z):

TAF TAF CYQV 301142Z 3012/3024 14010KT 4SM SHRA BR BKN004 OVC012 
      TEMPO 3012/3016 P6SM NSW SCT005 BKN012 OVC040 
     FM301600 16015KT P6SM BKN025 OVC040 
      TEMPO 3016/3022 P6SM -SHRA BKN020 OVC040 
     FM302200 16015KT P6SM -SHRA BKN020 OVC040 
      TEMPO 3022/3024 4SM SHRA BR OVC008 
      RMK FCST BASED ON AUTO OBS. NXT FCST BY 301800Z

Frequencies (top)

Verify before use: may be inaccurate or out of date.

ATF: 123.2 MHz (ATF)

Runways (top)

09/27: 3,000 x 75 ft (914 x 23 m) — paved — lighted

Latest comments (top)

Wynyard Airport renamed W.B. Needham Field: The Wynyard Airport was renamed "W.B. ... [read]

More... (top)

See also NOTAMs and nearby airports and navaids, or visit the Wynyard / W.B. Needham Field page at the main OurAirports website..